EW1476 Weather Reports


Display with metric or nautical units.
time (UTC)temp
F
wind
direction
speed
MPH
gust
MPH
rain 1hr
in
rain 24hr
in
rain mn
in
humidity
%
barometer
mb
20260902023028 81 223 2.0 2.0 0.00 0.00 0.00 74 1016.5
20260902021526 81 219 0.0 0.0 0.00 0.00 0.00 74 1016.7
20260902020024 81 217 0.0 0.0 0.00 0.00 0.00 74 1016.7
20260902014523 81 217 0.0 0.0 0.00 0.00 0.00 74 1016.6
20260902013036 81 216 0.0 0.0 0.00 0.00 0.00 75 1016.7
20260902011530 81 216 0.0 0.0 0.00 0.00 0.00 74 1016.6
20260902010038 82 216 0.0 0.0 0.00 0.00 0.00 72 1016.4
20260902004534 83 216 0.0 1.0 0.00 0.00 0.00 71 1016.1
20260902003105 83 216 1.0 2.0 0.00 0.00 0.00 72 1015.8
20260902001518 83 215 0.0 0.0 0.00 0.00 0.00 72 1015.5
20260902000036 84 214 0.0 0.0 0.00 0.00 0.00 71 1015.1
20260901234533 84 214 0.0 0.0 0.00 0.00 0.00 70 1015.0
20260901233036 85 214 0.0 0.0 0.00 0.00 0.00 69 1015.1
20260901231528 86 214 0.0 0.0 0.00 0.00 0.00 68 1015.0
20260901230027 87 214 0.0 0.0 0.00 0.00 0.00 68 1015.1
20260901224521 86 213 0.0 0.0 0.00 0.00 0.00 69 1015.3
20260901223034 87 213 0.0 0.0 0.00 0.00 0.00 70 1015.1
20260901221539 88 214 0.0 0.0 0.00 0.00 0.00 69 1015.3
20260901220039 89 214 0.0 0.0 0.00 0.00 0.00 68 1015.4
20260901214533 90 214 0.0 1.0 0.00 0.00 0.00 63 1015.5
20260901213030 90 216 0.0 2.0 0.00 0.00 0.00 65 1015.5
20260901211525 90 210 0.0 0.0 0.00 0.00 0.00 63 1015.6
20260901210024 89 214 0.0 0.0 0.00 0.00 0.00 64 1015.6
20260901204515 89 221 0.0 2.0 0.00 0.00 0.00 65 1015.8
20260901203014 89 221 0.0 2.0 0.00 0.00 0.00 65 1015.8
20260901201509 89 203 0.0 2.0 0.00 0.00 0.00 65 1016.0
20260901200030 88 217 0.0 1.0 0.00 0.00 0.00 68 1016.1
20260901194533 88 211 0.0 1.0 0.00 0.00 0.00 67 1016.2
20260901193027 87 206 0.0 0.0 0.00 0.00 0.00 71 1016.3
20260901191521 87 216 0.0 0.0 0.00 0.00 0.00 70 1016.5
20260901190018 86 204 0.0 0.0 0.00 0.00 0.00 73 1016.9
20260901184533 86 204 0.0 2.0 0.00 0.00 0.00 71 1017.3
20260901183008 87 205 1.0 2.0 0.00 0.00 0.00 70 1017.3
20260901181508 87 205 0.0 2.0 0.00 0.00 0.00 70 1017.1
20260901180005 86 208 2.0 3.0 0.00 0.00 0.00 69 1017.1
20260901174503 86 205 1.0 2.0 0.00 0.00 0.00 69 1017.1
20260901173017 85 206 2.0 4.0 0.00 0.00 0.00 70 1017.2
20260901171516 85 203 1.0 3.0 0.00 0.00 0.00 70 1017.3
20260901170013 85 203 0.0 3.0 0.00 0.00 0.00 71 1017.3
20260901164507 84 203 0.0 3.0 0.00 0.00 0.00 74 1017.5
20260901163006 83 204 2.0 3.0 0.00 0.00 0.00 75 1018.0
20260901161526 82 201 0.0 0.0 0.00 0.00 0.00 77 1018.0
20260901160022 82 201 0.0 0.0 0.00 0.00 0.00 75 1018.0
20260901154532 82 202 0.0 0.0 0.00 0.00 0.00 76 1018.0
20260901153022 82 200 0.0 0.0 0.00 0.00 0.00 76 1018.3
20260901151514 81 194 0.0 0.0 0.00 0.00 0.00 79 1018.2
20260901150007 80 197 0.0 0.0 0.00 0.00 0.00 80 1018.4
20260901144530 80 197 0.0 0.0 0.00 0.00 0.00 79 1018.3
20260901143027 80 196 0.0 0.0 0.00 0.00 0.00 79 1018.3
20260901141522 79 196 0.0 0.0 0.00 0.00 0.00 80 1018.3
20260901140018 79 196 0.0 0.0 0.00 0.00 0.00 82 1018.3
20260901134509 78 196 0.0 1.0 0.00 0.00 0.00 83 1018.4
20260901133008 78 194 0.0 0.0 0.00 0.00 0.00 85 1018.4
20260901131530 77 194 0.0 0.0 0.00 0.00 0.00 85 1018.3
20260901130028 77 194 0.0 0.0 0.00 0.00 0.00 86 1018.5
20260901124526 76 193 0.0 0.0 0.00 0.00 0.00 88 1018.6
20260901123021 75 193 0.0 0.0 0.00 0.00 0.00 89 1018.8
20260901121518 74 193 0.0 0.0 0.00 0.00 0.00 91 1018.8
20260901120038 73 194 0.0 0.0 0.00 0.00 0.00 92 1018.7
20260901114530 73 193 0.0 0.0 0.00 0.00 0.00 91 1018.4
20260901113029 73 194 0.0 0.0 0.00 0.00 0.00 91 1018.3
20260901111526 73 194 0.0 0.0 0.00 0.00 0.00 91 1018.4
20260901110025 74 194 0.0 0.0 0.00 0.00 0.00 90 1018.3
20260901104532 74 194 0.0 0.0 0.00 0.00 0.00 91 1018.3
20260901103040 74 193 0.0 0.0 0.00 0.00 0.00 91 1018.2
20260901101534 74 194 0.0 0.0 0.00 0.00 0.00 90 1018.1
20260901100045 74 194 0.0 0.0 0.00 0.00 0.00 90 1018.1
20260901094528 74 194 0.0 0.0 0.00 0.00 0.00 91 1018.2
20260901093006 74 194 0.0 0.0 0.00 0.00 0.00 92 1018.1
20260901091511 73 194 0.0 0.0 0.00 0.00 0.00 92 1018.0
20260901090006 73 193 0.0 0.0 0.00 0.00 0.00 93 1018.2
20260901084516 72 193 0.0 0.0 0.00 0.00 0.00 94 1018.3
20260901083010 72 193 0.0 0.0 0.00 0.00 0.00 93 1018.4
20260901081510 72 193 0.0 0.0 0.00 0.00 0.00 93 1018.4
20260901080011 73 193 0.0 0.0 0.00 0.00 0.00 93 1018.1
20260901074506 73 193 0.0 0.0 0.00 0.00 0.00 93 1018.2
20260901073027 73 194 0.0 0.0 0.00 0.00 0.00 94 1018.3
20260901071523 73 193 0.0 0.0 0.00 0.00 0.00 94 1018.2
20260901070018 72 193 0.0 0.0 0.00 0.00 0.00 94 1018.4
20260901064512 72 193 0.0 0.0 0.00 0.00 0.00 94 1018.6
20260901063008 72 193 0.0 0.0 0.00 0.00 0.00 93 1018.9
20260901061506 72 193 0.0 0.0 0.00 0.00 0.00 93 1019.1
20260901060034 72 193 0.0 0.0 0.00 0.00 0.00 93 1019.1
20260901054526 72 193 0.0 0.0 0.00 0.00 0.00 92 1018.9
20260901053019 72 193 0.0 0.0 0.00 0.00 0.00 93 1019.2
20260901051519 72 193 0.0 0.0 0.00 0.00 0.00 92 1019.3
20260901050012 73 193 0.0 0.0 0.00 0.00 0.00 92 1019.4
20260901044508 73 193 0.0 0.0 0.00 0.00 0.00 92 1019.4
20260901043032 73 194 0.0 0.0 0.00 0.00 0.00 92 1019.5
20260901041528 73 193 0.0 0.0 0.00 0.00 0.00 93 1019.6
20260901040025 72 194 0.0 0.0 0.00 0.00 0.00 92 1019.7
20260901034517 72 194 0.0 0.0 0.00 0.00 0.00 92 1019.7
20260901033031 72 194 0.0 0.0 0.00 0.00 0.00 93 1019.6
20260901031539 72 194 0.0 0.0 0.00 0.00 0.00 93 1019.9
20260901030032 72 193 0.0 0.0 0.00 0.00 0.00 93 1019.9
20260901024527 72 193 0.0 0.0 0.00 0.00 0.00 93 1019.9